Volver al catálogo

QIANFAN-164

ActivoComunicacionesPO
NORAD 69326·PAYLOAD·🇨🇳 China

Lanzado Jun 1, 2026 desde Jiuquan Satellite Launch Center

Loading…

Próximos Pases (próximas 24 horas)

TLE

ActualizadoSource: Space-Track

Época: Sep 14, 2026, 19:33 UTC

1 69326U 26121B   26257.81483365  .00000032  00000-0  31259-4 0  9997
2 69326  89.0107 291.5845 0001954 111.4780 248.6580 13.51021240 14274

Sigue QIANFAN-164 en tiempo real con AllMySat

Download on the App Store